| time (UTC) | temp F | wind direction | speed knots | gust knots | rain 1hr in | rain 24hr in | rain mn in | humidity % | barometer mb |
| 20260508181002 | 0 | 356 | 3.5 | 9.6 | 0.00 | 0.00 | 0.00 | 1014.7 | |
| 20260508180458 | 0 | 345 | 5.2 | 7.0 | 0.00 | 0.00 | 0.00 | 1015.0 | |
| 20260508175954 | 0 | 3 | 2.6 | 7.8 | 0.00 | 0.00 | 0.00 | 1015.3 | |
| 20260508175450 | 0 | 348 | 2.6 | 11.3 | 0.00 | 0.00 | 0.00 | 1015.3 | |
| 20260508174948 | 0 | 294 | 7.0 | 11.3 | 0.00 | 0.00 | 0.00 | 1015.2 | |
| 20260508174446 | 0 | 280 | 6.1 | 7.8 | 0.00 | 0.00 | 0.00 | 1015.4 | |
| 20260508173942 | 0 | 25 | 5.2 | 7.8 | 0.00 | 0.00 | 0.00 | 1015.3 | |
| 20260508173440 | 0 | 355 | 2.6 | 7.0 | 0.00 | 0.00 | 0.00 | 1015.5 | |
| 20260508172935 | 0 | 314 | 3.5 | 8.7 | 0.00 | 0.00 | 0.00 | 1015.7 | |
| 20260508172433 | 0 | 325 | 2.6 | 6.1 | 0.00 | 0.00 | 0.00 | 1015.7 | |
| 20260508171929 | 0 | 340 | 4.3 | 12.2 | 0.00 | 0.00 | 0.00 | 1015.9 | |
| 20260508171425 | 0 | 335 | 2.6 | 9.6 | 0.00 | 0.00 | 0.00 | 1015.7 | |
| 20260508170922 | 0 | 342 | 4.3 | 8.7 | 0.00 | 0.00 | 0.00 | 1016.0 | |
| 20260508170420 | 0 | 290 | 3.5 | 8.7 | 0.00 | 0.00 | 0.00 | 1015.9 | |
| 20260508165916 | 0 | 306 | 4.3 | 7.0 | 0.00 | 0.00 | 0.00 | 1016.0 | |
| 20260508165414 | 0 | 17 | 4.3 | 8.7 | 0.00 | 0.00 | 0.00 | 1015.9 | |
| 20260508164909 | 0 | 356 | 2.6 | 7.8 | 0.00 | 0.00 | 0.00 | 1016.1 | |
| 20260508164407 | 0 | 315 | 6.1 | 8.7 | 0.00 | 0.00 | 0.00 | 1016.3 | |
| 20260508163904 | 0 | 4 | 4.3 | 8.7 | 0.00 | 0.00 | 0.00 | 1016.1 | |
| 20260508163402 | 0 | 357 | 3.5 | 6.1 | 0.00 | 0.00 | 0.00 | 1016.3 | |
| 20260508162857 | 0 | 332 | 4.3 | 7.8 | 0.00 | 0.00 | 0.00 | 1016.3 | |
| 20260508162355 | 0 | 325 | 4.3 | 6.1 | 0.00 | 0.00 | 0.00 | 1016.2 | |
| 20260508161852 | 0 | 14 | 6.1 | 8.7 | 0.00 | 0.00 | 0.00 | 1016.5 | |
| 20260508161349 | 0 | 313 | 7.0 | 12.2 | 0.00 | 0.00 | 0.00 | 1016.5 | |
| 20260508160846 | 0 | 349 | 7.8 | 11.3 | 0.00 | 0.00 | 0.00 | 1016.5 | |
| 20260508160345 | 0 | 18 | 3.5 | 7.8 | 0.00 | 0.00 | 0.00 | 1016.5 | |
| 20260508155840 | 0 | 352 | 4.3 | 6.1 | 0.00 | 0.00 | 0.00 | 1016.7 | |
| 20260508155338 | 0 | 291 | 2.6 | 7.0 | 0.00 | 0.00 | 0.00 | 1016.8 | |
| 20260508154835 | 0 | 5 | 3.5 | 7.0 | 0.00 | 0.00 | 0.00 | 1016.9 | |
| 20260508154332 | 0 | 294 | 3.5 | 7.8 | 0.00 | 0.00 | 0.00 | 1016.7 | |
| 20260508153829 | 0 | 297 | 4.3 | 7.0 | 0.00 | 0.00 | 0.00 | 1017.1 | |
| 20260508153326 | 0 | 352 | 4.3 | 7.8 | 0.00 | 0.00 | 0.00 | 1017.3 | |
| 20260508152822 | 0 | 324 | 6.1 | 7.8 | 0.00 | 0.00 | 0.00 | 1017.0 | |
| 20260508152319 | 0 | 307 | 6.1 | 8.7 | 0.00 | 0.00 | 0.00 | 1017.1 | |
| 20260508151815 | 0 | 301 | 6.1 | 9.6 | 0.00 | 0.00 | 0.00 | 1017.3 | |
| 20260508151312 | 0 | 285 | 4.3 | 7.8 | 0.00 | 0.00 | 0.00 | 1017.3 | |
| 20260508150808 | 0 | 335 | 2.6 | 6.1 | 0.00 | 0.00 | 0.00 | 1017.3 | |
| 20260508150305 | 0 | 320 | 4.3 | 13.0 | 0.00 | 0.00 | 0.00 | 1017.4 | |
| 20260508145802 | 0 | 328 | 3.5 | 11.3 | 0.00 | 0.00 | 0.00 | 1017.3 | |
| 20260508145257 | 0 | 350 | 3.5 | 5.2 | 0.00 | 0.00 | 0.00 | 1017.4 | |
| 20260508144754 | 0 | 314 | 1.7 | 6.1 | 0.00 | 0.00 | 0.00 | 1017.6 | |
| 20260508144252 | 0 | 316 | 3.5 | 7.0 | 0.00 | 0.00 | 0.00 | 1017.7 | |
| 20260508143749 | 0 | 345 | 3.5 | 8.7 | 0.00 | 0.00 | 0.00 | 1017.4 | |
| 20260508143247 | 0 | 306 | 2.6 | 6.1 | 0.00 | 0.00 | 0.00 | 1017.6 | |
| 20260508142743 | 0 | 312 | 2.6 | 9.6 | 0.00 | 0.00 | 0.00 | 1017.7 | |
| 20260508142240 | 0 | 319 | 0.9 | 2.6 | 0.00 | 0.00 | 0.00 | 1017.5 | |
| 20260508141736 | 0 | 298 | 1.7 | 4.3 | 0.00 | 0.00 | 0.00 | 1017.6 | |
| 20260508141234 | 0 | 327 | 2.6 | 4.3 | 0.00 | 0.00 | 0.00 | 1017.6 | |
| 20260508140731 | 0 | 334 | 1.7 | 5.2 | 0.00 | 0.00 | 0.00 | 1017.6 | |
| 20260508140228 | 0 | 1 | 1.7 | 6.1 | 0.00 | 0.00 | 0.00 | 1017.7 | |
| 20260508135724 | 0 | 345 | 1.7 | 5.2 | 0.00 | 0.00 | 0.00 | 1018.0 | |
| 20260508135220 | 0 | 9 | 0.0 | 5.2 | 0.00 | 0.00 | 0.00 | 1017.6 | |
| 20260508134715 | 0 | 316 | 2.6 | 5.2 | 0.00 | 0.00 | 0.00 | 1017.9 | |
| 20260508134213 | 0 | 358 | 0.9 | 1.7 | 0.00 | 0.00 | 0.00 | 1017.8 | |
| 20260508133710 | 0 | 280 | 3.5 | 5.2 | 0.00 | 0.00 | 0.00 | 1017.8 | |
| 20260508133208 | 0 | 357 | 1.7 | 4.3 | 0.00 | 0.00 | 0.00 | 1017.8 | |
| 20260508132705 | 0 | 307 | 2.6 | 5.2 | 0.00 | 0.00 | 0.00 | 1017.5 | |
| 20260508132202 | 0 | 329 | 0.9 | 5.2 | 0.00 | 0.00 | 0.00 | 1017.9 | |
| 20260508131657 | 0 | 347 | 0.0 | 2.6 | 0.00 | 0.00 | 0.00 | 1017.8 | |
| 20260508131154 | 0 | 344 | 0.9 | 2.6 | 0.00 | 0.00 | 0.00 | 1017.8 | |
| 20260508130651 | 0 | 333 | 1.7 | 4.3 | 0.00 | 0.00 | 0.00 | 1018.0 | |
| 20260508130148 | 0 | 341 | 1.7 | 6.1 | 0.00 | 0.00 | 0.00 | 1017.9 | |
| 20260508125643 | 0 | 353 | 2.6 | 4.3 | 0.00 | 0.00 | 0.00 | 1017.8 | |
| 20260508125140 | 0 | 238 | 3.5 | 5.2 | 0.00 | 0.00 | 0.00 | 1017.9 | |
| 20260508124638 | 0 | 323 | 0.9 | 6.1 | 0.00 | 0.00 | 0.00 | 1017.8 | |
| 20260508124135 | 0 | 351 | 1.7 | 4.3 | 0.00 | 0.00 | 0.00 | 1017.9 | |
| 20260508123634 | 0 | 280 | 1.7 | 6.1 | 0.00 | 0.00 | 0.00 | 1018.0 | |
| 20260508123131 | 0 | 306 | 2.6 | 6.1 | 0.00 | 0.00 | 0.00 | 1017.6 | |
| 20260508122627 | 0 | 357 | 1.7 | 4.3 | 0.00 | 0.00 | 0.00 | 1017.8 | |
| 20260508122124 | 0 | 307 | 2.6 | 4.3 | 0.00 | 0.00 | 0.00 | 1017.7 | |
| 20260508121622 | 0 | 314 | 1.7 | 2.6 | 0.00 | 0.00 | 0.00 | 1017.7 | |
| 20260508121120 | 0 | 358 | 1.7 | 2.6 | 0.00 | 0.00 | 0.00 | 1017.8 | |
| 20260508120617 | 0 | 354 | 0.0 | 4.3 | 0.00 | 0.00 | 0.00 | 1017.6 | |
| 20260508120116 | 0 | 325 | 2.6 | 4.3 | 0.00 | 0.00 | 0.00 | 1017.8 | |
| 20260508115613 | 0 | 359 | 0.0 | 1.7 | 0.00 | 0.00 | 0.00 | 1017.7 | |
| 20260508115109 | 0 | 356 | 0.9 | 2.6 | 0.00 | 0.00 | 0.00 | 1017.5 | |
| 20260508114607 | 0 | 3 | 0.9 | 2.6 | 0.00 | 0.00 | 0.00 | 1017.8 | |
| 20260508114102 | 0 | 0 | 0.9 | 1.7 | 0.00 | 0.00 | 0.00 | 1017.7 | |
| 20260508113600 | 0 | 0 | 0.0 | 0.9 | 0.00 | 0.00 | 0.00 | 1017.7 | |
| 20260508113058 | 0 | 358 | 0.9 | 1.7 | 0.00 | 0.00 | 0.00 | 1017.7 | |
| 20260508112554 | 0 | 317 | 0.0 | 1.7 | 0.00 | 0.00 | 0.00 | 1017.5 | |
| 20260508112051 | 0 | 328 | 0.0 | 1.7 | 0.00 | 0.00 | 0.00 | 1017.1 | |
| 20260508111548 | 0 | 4 | 0.9 | 0.9 | 0.00 | 0.00 | 0.00 | 1017.3 | |
| 20260508111045 | 0 | 342 | 0.9 | 0.9 | 0.00 | 0.00 | 0.00 | 1017.1 | |
| 20260508110543 | 0 | 348 | 0.0 | 0.9 | 0.00 | 0.00 | 0.00 | 1017.3 | |
| 20260508110038 | 0 | 3 | 0.0 | 0.0 | 0.00 | 0.00 | 0.00 | 1017.3 | |
| 20260508105533 | 0 | 7 | 0.0 | 0.0 | 0.00 | 0.00 | 0.00 | 1017.3 | |
| 20260508105031 | 0 | 1 | 0.0 | 0.9 | 0.00 | 0.00 | 0.00 | 1017.1 | |
| 20260508104529 | 0 | 7 | 0.0 | 0.0 | 0.00 | 0.00 | 0.00 | 1017.0 | |
| 20260508104025 | 0 | 15 | 0.0 | 0.0 | 0.00 | 0.00 | 0.00 | 1016.9 | |
| 20260508103522 | 0 | 7 | 0.0 | 0.0 | 0.00 | 0.00 | 0.00 | 1017.3 | |
| 20260508103020 | 0 | 4 | 0.0 | 0.9 | 0.00 | 0.00 | 0.00 | 1016.9 | |
| 20260508102517 | 0 | 5 | 0.0 | 0.9 | 0.00 | 0.00 | 0.00 | 1017.1 | |
| 20260508102015 | 0 | 4 | 0.0 | 0.0 | 0.00 | 0.00 | 0.00 | 1016.9 | |
| 20260508101512 | 0 | 3 | 0.0 | 0.0 | 0.00 | 0.00 | 0.00 | 1017.1 | |
| 20260508101009 | 0 | 7 | 0.0 | 0.0 | 0.00 | 0.00 | 0.00 | 1017.0 | |
| 20260508100507 | 0 | 6 | 0.0 | 0.0 | 0.00 | 0.00 | 0.00 | 1016.9 | |
| 20260508100004 | 0 | 4 | 0.0 | 0.0 | 0.00 | 0.00 | 0.00 | 1016.9 | |
| 20260508095501 | 0 | 4 | 0.0 | 0.0 | 0.00 | 0.00 | 0.00 | 1017.0 | |
| 20260508094957 | 0 | 5 | 0.0 | 0.0 | 0.00 | 0.00 | 0.00 | 1017.1 | |
| 20260508094454 | 0 | 4 | 0.0 | 0.0 | 0.00 | 0.00 | 0.00 | 1017.0 | |
| 20260508093951 | 0 | 3 | 0.0 | 0.0 | 0.00 | 0.00 | 0.00 | 1017.1 | |
| 20260508093448 | 0 | 6 | 0.0 | 0.0 | 0.00 | 0.00 | 0.00 | 1017.0 | |
| 20260508092946 | 0 | 7 | 0.0 | 0.0 | 0.00 | 0.00 | 0.00 | 1016.9 | |
| 20260508092443 | 0 | 6 | 0.0 | 0.0 | 0.00 | 0.00 | 0.00 | 1017.1 | |
| 20260508091942 | 0 | 7 | 0.0 | 0.0 | 0.00 | 0.00 | 0.00 | 1016.7 | |
| 20260508091438 | 0 | 6 | 0.0 | 0.0 | 0.00 | 0.00 | 0.00 | 1017.1 | |
| 20260508090935 | 0 | 1 | 0.0 | 0.0 | 0.00 | 0.00 | 0.00 | 1016.9 | |
| 20260508090434 | 0 | 1 | 0.0 | 0.0 | 0.00 | 0.00 | 0.00 | 1016.9 | |
| 20260508085929 | 0 | 2 | 0.0 | 0.0 | 0.00 | 0.00 | 0.00 | 1016.8 | |
| 20260508085427 | 0 | 2 | 0.0 | 0.0 | 0.00 | 0.00 | 0.00 | 1016.8 | |
| 20260508084923 | 0 | 2 | 0.0 | 0.0 | 0.00 | 0.00 | 0.00 | 1016.8 | |
| 20260508084419 | 0 | 4 | 0.0 | 0.0 | 0.00 | 0.00 | 0.00 | 1016.6 | |
| 20260508083918 | 0 | 4 | 0.0 | 0.0 | 0.00 | 0.00 | 0.00 | 1016.7 | |
| 20260508083415 | 0 | 350 | 0.9 | 0.9 | 0.00 | 0.00 | 0.00 | 1016.6 | |
| 20260508082909 | 0 | 4 | 0.0 | 0.0 | 0.00 | 0.00 | 0.00 | 1016.9 | |
| 20260508082407 | 0 | 5 | 0.0 | 0.0 | 0.00 | 0.00 | 0.00 | 1016.8 | |
| 20260508081904 | 0 | 2 | 0.0 | 0.0 | 0.00 | 0.00 | 0.00 | 1016.6 | |
| 20260508081401 | 0 | 2 | 0.0 | 0.0 | 0.00 | 0.00 | 0.00 | 1016.6 | |
| 20260508080857 | 0 | 3 | 0.0 | 0.0 | 0.00 | 0.00 | 0.00 | 1016.7 | |
| 20260508080356 | 0 | 3 | 0.0 | 0.0 | 0.00 | 0.00 | 0.00 | 1016.5 | |
| 20260508075852 | 0 | 3 | 0.0 | 0.0 | 0.00 | 0.00 | 0.00 | 1016.7 | |
| 20260508075349 | 0 | 4 | 0.0 | 0.0 | 0.00 | 0.00 | 0.00 | 1016.6 | |
| 20260508074847 | 0 | 4 | 0.0 | 0.0 | 0.00 | 0.00 | 0.00 | 1016.7 | |
| 20260508074343 | 0 | 3 | 0.0 | 0.0 | 0.00 | 0.00 | 0.00 | 1016.6 | |
| 20260508073840 | 0 | 3 | 0.0 | 0.9 | 0.00 | 0.00 | 0.00 | 1016.6 | |
| 20260508073338 | 0 | 6 | 0.0 | 0.9 | 0.00 | 0.00 | 0.00 | 1016.7 | |
| 20260508072835 | 0 | 2 | 0.0 | 0.0 | 0.00 | 0.00 | 0.00 | 1016.5 | |
| 20260508072331 | 0 | 1 | 0.0 | 0.9 | 0.00 | 0.00 | 0.00 | 1016.7 | |
| 20260508071829 | 0 | 2 | 0.0 | 0.0 | 0.00 | 0.00 | 0.00 | 1016.6 | |
| 20260508071327 | 0 | 3 | 0.0 | 0.0 | 0.00 | 0.00 | 0.00 | 1016.7 | |
| 20260508070824 | 0 | 3 | 0.0 | 0.0 | 0.00 | 0.00 | 0.00 | 1016.7 | |
| 20260508070322 | 0 | 3 | 0.0 | 0.0 | 0.00 | 0.00 | 0.00 | 1016.8 | |
| 20260508065819 | 0 | 2 | 0.0 | 0.0 | 0.00 | 0.00 | 0.00 | 1016.9 | |
| 20260508065317 | 0 | 3 | 0.0 | 0.0 | 0.00 | 0.00 | 0.00 | 1016.8 | |
| 20260508064815 | 0 | 358 | 0.0 | 0.9 | 0.00 | 0.00 | 0.00 | 1017.3 | |
| 20260508064313 | 0 | 4 | 0.0 | 0.0 | 0.00 | 0.00 | 0.00 | 1017.1 | |
| 20260508063810 | 0 | 6 | 0.0 | 0.0 | 0.00 | 0.00 | 0.00 | 1017.3 | |
| 20260508063308 | 0 | 8 | 0.0 | 0.0 | 0.00 | 0.00 | 0.00 | 1017.1 | |
| 20260508062805 | 0 | 3 | 0.0 | 0.0 | 0.00 | 0.00 | 0.00 | 1017.3 | |
| 20260508062306 | 0 | 3 | 0.0 | 0.0 | 0.00 | 0.00 | 0.00 | 1017.1 | |
| 20260508061759 | 0 | 4 | 0.0 | 0.0 | 0.00 | 0.00 | 0.00 | 1017.0 | |
| 20260508061256 | 0 | 4 | 0.0 | 0.0 | 0.00 | 0.00 | 0.00 | 1017.0 | |
| 20260508060753 | 0 | 4 | 0.0 | 0.0 | 0.00 | 0.00 | 0.00 | 1016.9 | |
| 20260508060251 | 0 | 4 | 0.0 | 0.0 | 0.00 | 0.00 | 0.00 | 1017.3 | |
| 20260508055746 | 0 | 4 | 0.0 | 0.0 | 0.00 | 0.00 | 0.00 | 1017.0 | |
| 20260508055243 | 0 | 4 | 0.0 | 0.0 | 0.00 | 0.00 | 0.00 | 1017.4 | |
| 20260508054739 | 0 | 4 | 0.0 | 0.0 | 0.00 | 0.00 | 0.00 | 1017.1 | |
| 20260508054238 | 0 | 4 | 0.0 | 0.0 | 0.00 | 0.00 | 0.00 | 1017.0 | |
| 20260508053734 | 0 | 4 | 0.0 | 0.0 | 0.00 | 0.00 | 0.00 | 1017.3 | |
| 20260508053231 | 0 | 4 | 0.0 | 0.0 | 0.00 | 0.00 | 0.00 | 1017.1 | |
| 20260508052729 | 0 | 5 | 0.0 | 0.0 | 0.00 | 0.00 | 0.00 | 1017.0 | |
| 20260508052226 | 0 | 4 | 0.0 | 0.0 | 0.00 | 0.00 | 0.00 | 1017.3 | |
| 20260508051722 | 0 | 4 | 0.0 | 0.0 | 0.00 | 0.00 | 0.00 | 1017.4 | |
| 20260508051217 | 0 | 8 | 0.0 | 0.0 | 0.00 | 0.00 | 0.00 | 1017.3 | |
| 20260508050714 | 0 | 11 | 0.0 | 0.0 | 0.00 | 0.00 | 0.00 | 1017.4 | |
| 20260508050212 | 0 | 9 | 0.0 | 0.0 | 0.00 | 0.00 | 0.00 | 1017.4 | |
| 20260508045706 | 0 | 4 | 0.0 | 0.0 | 0.00 | 0.00 | 0.00 | 1017.0 | |
| 20260508045205 | 0 | 4 | 0.0 | 0.0 | 0.00 | 0.00 | 0.00 | 1017.1 | |
| 20260508044702 | 0 | 5 | 0.0 | 0.0 | 0.00 | 0.00 | 0.00 | 1017.0 | |
| 20260508044158 | 0 | 4 | 0.0 | 0.0 | 0.00 | 0.00 | 0.00 | 1017.3 | |
| 20260508043654 | 0 | 3 | 0.0 | 0.0 | 0.00 | 0.00 | 0.00 | 1017.4 | |
| 20260508043152 | 0 | 3 | 0.0 | 0.0 | 0.00 | 0.00 | 0.00 | 1017.4 | |
| 20260508042648 | 0 | 5 | 0.0 | 0.0 | 0.00 | 0.00 | 0.00 | 1017.5 | |
| 20260508042146 | 0 | 5 | 0.0 | 0.0 | 0.00 | 0.00 | 0.00 | 1017.4 | |
| 20260508041642 | 0 | 5 | 0.0 | 0.0 | 0.00 | 0.00 | 0.00 | 1017.4 | |
| 20260508041139 | 0 | 5 | 0.0 | 0.0 | 0.00 | 0.00 | 0.00 | 1017.3 | |
| 20260508040636 | 0 | 5 | 0.0 | 0.0 | 0.00 | 0.00 | 0.00 | 1017.0 | |
| 20260508040133 | 0 | 4 | 0.0 | 0.0 | 0.00 | 0.00 | 0.00 | 1017.3 | |
| 20260508035630 | 0 | 1 | 0.0 | 0.9 | 0.00 | 0.00 | 0.00 | 1017.0 | |
| 20260508035128 | 0 | 4 | 0.0 | 0.0 | 0.00 | 0.00 | 0.00 | 1017.3 | |
| 20260508034625 | 0 | 2 | 0.0 | 0.0 | 0.00 | 0.00 | 0.00 | 1017.1 | |
| 20260508034121 | 0 | 2 | 0.0 | 0.0 | 0.00 | 0.00 | 0.00 | 1017.0 | |
| 20260508033619 | 0 | 2 | 0.0 | 0.0 | 0.00 | 0.00 | 0.00 | 1017.0 | |
| 20260508033117 | 0 | 2 | 0.0 | 0.0 | 0.00 | 0.00 | 0.00 | 1017.4 | |
| 20260508032613 | 0 | 4 | 0.0 | 0.0 | 0.00 | 0.00 | 0.00 | 1017.1 | |
| 20260508032111 | 0 | 5 | 0.0 | 0.0 | 0.00 | 0.00 | 0.00 | 1017.0 | |
| 20260508031608 | 0 | 2 | 0.0 | 0.0 | 0.00 | 0.00 | 0.00 | 1017.0 | |
| 20260508031104 | 0 | 2 | 0.0 | 0.0 | 0.00 | 0.00 | 0.00 | 1017.3 | |
| 20260508030600 | 0 | 2 | 0.0 | 0.0 | 0.00 | 0.00 | 0.00 | 1017.1 | |
| 20260508030058 | 0 | 2 | 0.0 | 0.0 | 0.00 | 0.00 | 0.00 | 1017.4 | |
| 20260508025554 | 0 | 2 | 0.0 | 0.0 | 0.00 | 0.00 | 0.00 | 1017.1 | |
| 20260508025051 | 0 | 2 | 0.0 | 0.0 | 0.00 | 0.00 | 0.00 | 1017.4 | |
| 20260508024547 | 0 | 2 | 0.0 | 0.0 | 0.00 | 0.00 | 0.00 | 1017.1 | |
| 20260508024045 | 0 | 1 | 0.0 | 0.0 | 0.00 | 0.00 | 0.00 | 1017.4 | |
| 20260508023541 | 0 | 0 | 0.0 | 0.0 | 0.00 | 0.00 | 0.00 | 1017.5 | |
| 20260508023038 | 0 | 358 | 0.0 | 0.0 | 0.00 | 0.00 | 0.00 | 1017.1 | |
| 20260508022534 | 0 | 358 | 0.0 | 0.0 | 0.00 | 0.00 | 0.00 | 1017.4 | |
| 20260508022031 | 0 | 358 | 0.0 | 0.9 | 0.00 | 0.00 | 0.00 | 1017.5 | |
| 20260508021527 | 0 | 358 | 0.0 | 0.0 | 0.00 | 0.00 | 0.00 | 1017.5 | |
| 20260508021023 | 0 | 358 | 0.0 | 0.0 | 0.00 | 0.00 | 0.00 | 1017.1 | |
| 20260508020521 | 0 | 357 | 0.9 | 0.9 | 0.00 | 0.00 | 0.00 | 1017.3 | |
| 20260508020018 | 0 | 358 | 0.0 | 0.0 | 0.00 | 0.00 | 0.00 | 1017.4 | |
| 20260508015516 | 0 | 358 | 0.0 | 0.0 | 0.00 | 0.00 | 0.00 | 1017.4 | |
| 20260508015012 | 0 | 358 | 0.0 | 0.0 | 0.00 | 0.00 | 0.00 | 1017.1 | |
| 20260508014508 | 0 | 358 | 0.0 | 0.0 | 0.00 | 0.00 | 0.00 | 1017.0 | |
| 20260508014004 | 0 | 358 | 0.0 | 0.0 | 0.00 | 0.00 | 0.00 | 1017.0 | |
| 20260508013455 | 0 | 358 | 0.0 | 0.0 | 0.00 | 0.00 | 0.00 | 1017.1 | |
| 20260508012953 | 0 | 357 | 0.0 | 0.9 | 0.00 | 0.00 | 0.00 | 1017.0 | |
| 20260508012450 | 0 | 358 | 0.0 | 0.9 | 0.00 | 0.00 | 0.00 | 1016.9 | |
| 20260508011947 | 0 | 358 | 0.0 | 0.0 | 0.00 | 0.00 | 0.00 | 1017.1 | |
| 20260508011445 | 0 | 358 | 0.0 | 0.9 | 0.00 | 0.00 | 0.00 | 1016.9 | |
| 20260508010942 | 0 | 358 | 0.0 | 0.0 | 0.00 | 0.00 | 0.00 | 1016.9 | |
| 20260508010439 | 0 | 358 | 0.0 | 0.9 | 0.00 | 0.00 | 0.00 | 1016.8 | |
| 20260508005936 | 0 | 358 | 0.0 | 0.0 | 0.00 | 0.00 | 0.00 | 1016.7 | |
| 20260508005433 | 0 | 358 | 0.0 | 0.0 | 0.00 | 0.00 | 0.00 | 1016.9 | |
| 20260508004929 | 0 | 358 | 0.0 | 0.9 | 0.00 | 0.00 | 0.00 | 1016.8 | |
| 20260508004426 | 0 | 358 | 0.0 | 0.9 | 0.00 | 0.00 | 0.00 | 1017.0 | |
| 20260508003922 | 0 | 358 | 0.0 | 0.0 | 0.00 | 0.00 | 0.00 | 1016.6 | |
| 20260508003419 | 0 | 358 | 0.0 | 0.0 | 0.00 | 0.00 | 0.00 | 1016.6 | |
| 20260508002916 | 0 | 358 | 0.0 | 0.0 | 0.00 | 0.00 | 0.00 | 1016.7 | |
| 20260508002413 | 0 | 358 | 0.0 | 0.9 | 0.00 | 0.00 | 0.00 | 1016.6 | |
| 20260508001909 | 0 | 29 | 0.0 | 1.7 | 0.00 | 0.00 | 0.00 | 1016.6 | |
| 20260508001405 | 0 | 3 | 0.0 | 1.7 | 0.00 | 0.00 | 0.00 | 1016.3 | |
| 20260508000902 | 0 | 31 | 0.0 | 0.9 | 0.00 | 0.00 | 0.00 | 1016.4 | |
| 20260508000358 | 0 | 354 | 0.9 | 0.9 | 0.00 | 0.00 | 0.00 | 1016.4 | |
| 20260507235854 | 0 | 349 | 0.0 | 1.7 | 0.00 | 0.00 | 0.00 | 1016.3 | |
| 20260507235352 | 0 | 22 | 0.9 | 2.6 | 0.00 | 0.00 | 0.00 | 1016.3 | |
| 20260507234849 | 0 | 66 | 0.9 | 1.7 | 0.00 | 0.00 | 0.00 | 1016.5 | |
| 20260507234346 | 0 | 351 | 0.9 | 2.6 | 0.00 | 0.00 | 0.00 | 1016.1 | |
| 20260507233842 | 0 | 350 | 1.7 | 2.6 | 0.00 | 0.00 | 0.00 | 1016.2 | |
| 20260507233339 | 0 | 349 | 1.7 | 2.6 | 0.00 | 0.00 | 0.00 | 1016.2 | |
| 20260507232838 | 0 | 1 | 0.0 | 2.6 | 0.00 | 0.00 | 0.00 | 1016.3 | |
| 20260507232334 | 0 | 7 | 0.0 | 0.9 | 0.00 | 0.00 | 0.00 | 1016.3 | |
| 20260507231832 | 0 | 355 | 0.9 | 5.2 | 0.00 | 0.00 | 0.00 | 1016.1 | |
| 20260507231328 | 0 | 333 | 2.6 | 4.3 | 0.00 | 0.00 | 0.00 | 1016.3 | |
| 20260507230824 | 0 | 0 | 1.7 | 6.1 | 0.00 | 0.00 | 0.00 | 1016.3 | |
| 20260507230322 | 0 | 59 | 1.7 | 2.6 | 0.00 | 0.00 | 0.00 | 1016.4 | |
| 20260507225822 | 0 | 13 | 1.7 | 4.3 | 0.00 | 0.00 | 0.00 | 1016.2 | |
| 20260507225318 | 0 | 351 | 2.6 | 5.2 | 0.00 | 0.00 | 0.00 | 1016.3 | |
| 20260507224814 | 0 | 42 | 0.9 | 2.6 | 0.00 | 0.00 | 0.00 | 1016.1 | |
| 20260507224311 | 0 | 28 | 2.6 | 2.6 | 0.00 | 0.00 | 0.00 | 1016.4 | |
| 20260507223807 | 0 | 34 | 0.9 | 2.6 | 0.00 | 0.00 | 0.00 | 1016.4 | |
| 20260507223303 | 0 | 349 | 2.6 | 5.2 | 0.00 | 0.00 | 0.00 | 1016.4 | |
| 20260507222801 | 0 | 339 | 4.3 | 6.1 | 0.00 | 0.00 | 0.00 | 1016.3 | |
| 20260507222257 | 0 | 59 | 0.9 | 1.7 | 0.00 | 0.00 | 0.00 | 1016.6 | |
| 20260507221754 | 0 | 33 | 2.6 | 4.3 | 0.00 | 0.00 | 0.00 | 1016.5 | |
| 20260507221250 | 0 | 28 | 2.6 | 4.3 | 0.00 | 0.00 | 0.00 | 1016.6 | |
| 20260507220746 | 0 | 10 | 1.7 | 7.0 | 0.00 | 0.00 | 0.00 | 1016.4 | |
| 20260507220245 | 0 | 330 | 4.3 | 7.0 | 0.00 | 0.00 | 0.00 | 1016.5 | |
| 20260507215741 | 0 | 338 | 2.6 | 6.1 | 0.00 | 0.00 | 0.00 | 1016.4 | |
| 20260507215239 | 0 | 20 | 2.6 | 7.0 | 0.00 | 0.00 | 0.00 | 1016.7 | |
| 20260507214735 | 0 | 36 | 0.9 | 5.2 | 0.00 | 0.00 | 0.00 | 1016.3 | |
| 20260507214233 | 0 | 90 | 1.7 | 5.2 | 0.00 | 0.00 | 0.00 | 1016.3 | |
| 20260507213728 | 0 | 343 | 2.6 | 7.0 | 0.00 | 0.00 | 0.00 | 1016.3 | |
| 20260507213225 | 0 | 106 | 1.7 | 7.0 | 0.00 | 0.00 | 0.00 | 1016.3 | |
| 20260507212721 | 0 | 60 | 2.6 | 5.2 | 0.00 | 0.00 | 0.00 | 1016.1 | |
| 20260507212218 | 0 | 43 | 0.9 | 7.0 | 0.00 | 0.00 | 0.00 | 1016.3 | |
| 20260507211715 | 0 | 27 | 0.9 | 5.2 | 0.00 | 0.00 | 0.00 | 1016.0 | |
| 20260507211210 | 0 | 71 | 1.7 | 5.2 | 0.00 | 0.00 | 0.00 | 1016.3 | |
| 20260507210708 | 0 | 358 | 3.5 | 5.2 | 0.00 | 0.00 | 0.00 | 1016.2 | |
| 20260507210205 | 0 | 338 | 1.7 | 2.6 | 0.00 | 0.00 | 0.00 | 1016.2 | |
| 20260507205701 | 0 | 58 | 3.5 | 6.1 | 0.00 | 0.00 | 0.00 | 1016.2 | |
| 20260507205158 | 0 | 137 | 4.3 | 9.6 | 0.00 | 0.00 | 0.00 | 1016.2 | |
| 20260507204654 | 0 | 355 | 0.9 | 2.6 | 0.00 | 0.00 | 0.00 | 1016.0 | |
| 20260507204152 | 0 | 339 | 4.3 | 5.2 | 0.00 | 0.00 | 0.00 | 1016.1 | |
| 20260507203650 | 0 | 288 | 1.7 | 2.6 | 0.00 | 0.00 | 0.00 | 1016.0 | |
| 20260507203147 | 0 | 309 | 6.1 | 7.0 | 0.00 | 0.00 | 0.00 | 1016.0 | |
| 20260507202642 | 0 | 326 | 3.5 | 5.2 | 0.00 | 0.00 | 0.00 | 1015.9 | |
| 20260507202139 | 0 | 344 | 3.5 | 7.8 | 0.00 | 0.00 | 0.00 | 1016.1 | |
| 20260507201634 | 0 | 331 | 3.5 | 6.1 | 0.00 | 0.00 | 0.00 | 1015.9 | |
| 20260507201131 | 0 | 2 | 3.5 | 6.1 | 0.00 | 0.00 | 0.00 | 1016.0 | |
| 20260507200627 | 0 | 8 | 1.7 | 6.1 | 0.00 | 0.00 | 0.00 | 1016.1 | |
| 20260507200123 | 0 | 44 | 4.3 | 6.1 | 0.00 | 0.00 | 0.00 | 1016.1 | |
| 20260507195620 | 0 | 43 | 4.3 | 6.1 | 0.00 | 0.00 | 0.00 | 1016.1 | |
| 20260507195118 | 0 | 350 | 2.6 | 5.2 | 0.00 | 0.00 | 0.00 | 1016.3 | |
| 20260507194614 | 0 | 314 | 1.7 | 5.2 | 0.00 | 0.00 | 0.00 | 1016.2 | |
| 20260507194109 | 0 | 324 | 2.6 | 5.2 | 0.00 | 0.00 | 0.00 | 1016.3 | |
| 20260507193607 | 0 | 41 | 1.7 | 4.3 | 0.00 | 0.00 | 0.00 | 1016.4 | |
| 20260507193104 | 0 | 327 | 1.7 | 7.8 | 0.00 | 0.00 | 0.00 | 1016.5 | |
| 20260507192600 | 0 | 38 | 3.5 | 7.0 | 0.00 | 0.00 | 0.00 | 1016.4 | |
| 20260507192057 | 0 | 16 | 3.5 | 7.8 | 0.00 | 0.00 | 0.00 | 1016.5 | |
| 20260507191552 | 0 | 16 | 3.5 | 7.8 | 0.00 | 0.00 | 0.00 | 1016.5 | |
| 20260507191050 | 0 | 354 | 4.3 | 7.0 | 0.00 | 0.00 | 0.00 | 1016.3 | |
| 20260507190547 | 0 | 347 | 4.3 | 9.6 | 0.00 | 0.00 | 0.00 | 1016.5 | |
| 20260507190046 | 0 | 87 | 4.3 | 7.8 | 0.00 | 0.00 | 0.00 | 1016.2 | |
| 20260507185544 | 0 | 341 | 0.9 | 4.3 | 0.00 | 0.00 | 0.00 | 1016.6 | |
| 20260507185040 | 0 | 1 | 0.9 | 8.7 | 0.00 | 0.00 | 0.00 | 1016.4 | |
| 20260507184538 | 0 | 15 | 4.3 | 5.2 | 0.00 | 0.00 | 0.00 | 1016.5 | |
| 20260507184036 | 0 | 75 | 2.6 | 5.2 | 0.00 | 0.00 | 0.00 | 1016.2 | |
| 20260507183531 | 0 | 35 | 3.5 | 9.6 | 0.00 | 0.00 | 0.00 | 1016.4 | |
| 20260507183029 | 0 | 359 | 0.9 | 6.1 | 0.00 | 0.00 | 0.00 | 1016.5 | |
| 20260507182525 | 0 | 348 | 1.7 | 4.3 | 0.00 | 0.00 | 0.00 | 1016.5 | |
| 20260507182021 | 0 | 146 | 1.7 | 5.2 | 0.00 | 0.00 | 0.00 | 1016.6 | |
| 20260507181518 | 0 | 331 | 5.2 | 8.7 | 0.00 | 0.00 | 0.00 | 1016.5 |